Location: Newark
(4.6381°N, 74.0644°W)
Time: 09:35:44
(UTC+00:00)

ISS - Visible Passes

Search period start: 18 October 2019 00:00
Search period end: 28 October 2019 00:00
Orbit: 411 x 421 km, 51.6° (Epoch: 18 October)

Date Brightness Start Highest point End Pass type
(mag) Time Alt. Az. Time Alt. Az. Time Alt. Az.
19 Oct -3.0 10:05:41 10° SSW 10:08:59 55° SE 10:12:16 10° NE visible
20 Oct -1.3 09:17:45 10° S 09:20:28 22° SE 09:23:10 10° ENE visible
21 Oct -2.6 10:05:35 10° WSW 10:08:26 25° NW 10:11:16 10° N visible
22 Oct -2.9 09:20:56 38° NNE 09:20:56 38° NNE 09:23:12 10° NNE visible
